Simultaneous Nadir Overpasses (SNOs) Predictions

Prediction of SNOs near US between AQUA and NPP Satellite Orbit:

Table of predicted SNOs near US for the next 10.0 days since TLE Epoch: 7/27/2015
Index Date (AQUA) Time (AQUA) AQUA Lat,Lon Date (NPP) Time (NPP) NPP Lat,Lon Distance(km) Time Diff (sec)
1 07/27/2015 21:28:47 27.96,-122.61 07/27/2015 21:31:13 27.46,-125.08 249.55 146
2 07/30/2015 07:45:47 20.04, -89.51 07/30/2015 07:39:19 20.01, -89.40 11.57 388
3 07/30/2015 09:20:20 35.68,-110.24 07/30/2015 09:16:20 35.73,-110.55 28.67 240
4 08/02/2015 06:30:24 46.36, -65.02 08/02/2015 06:34:31 46.78, -67.07 163.35 247
5 08/02/2015 08:08:17 49.92, -88.33 08/02/2015 08:14:58 50.40, -90.90 190.76 401
6 08/04/2015 19:06:23 49.97, -92.49 08/04/2015 19:05:13 49.67, -94.40 141.57 70
7 08/04/2015 20:43:54
